Time,TemperatureF,DewpointF,PressureIn,WindDirection,WindDirectionDegrees,WindSpeedMPH,WindSpeedGustMPH,Humidity,HourlyPrecipIn,Conditions,Clouds,dailyrainin,SoftwareType,DateUTC
2013-02-14 00:02:00,39.0,32.0,30.00,NE,47,0.0,2.0,75,0.00,,,-99.99,,2013-02-14 05:02:00,
2013-02-14 00:11:00,39.0,32.0,30.00,NE,47,0.0,2.0,75,0.00,,,-99.99,,2013-02-14 05:11:00,
2013-02-14 00:22:00,39.0,32.0,30.01,West,260,1.0,3.0,75,0.00,,,-99.99,,2013-02-14 05:22:00,
2013-02-14 00:32:00,39.0,32.0,30.01,West,260,1.0,3.0,75,0.00,,,-99.99,,2013-02-14 05:32:00,
2013-02-14 00:42:00,39.0,32.0,30.01,West,260,1.0,3.0,75,0.00,,,-99.99,,2013-02-14 05:42:00,
2013-02-14 00:52:00,39.0,32.0,30.01,NE,47,0.0,2.0,75,0.00,,,-99.99,,2013-02-14 05:52:00,
2013-02-14 01:02:00,39.0,32.0,30.01,NE,47,0.0,0.0,75,0.00,,,-99.99,,2013-02-14 06:02:00,
2013-02-14 01:11:00,39.0,32.0,30.00,WNW,284,0.0,6.0,75,0.00,,,-99.99,,2013-02-14 06:11:00,
2013-02-14 01:21:00,39.0,32.0,30.00,WNW,284,0.0,6.0,75,0.00,,,-99.99,,2013-02-14 06:21:00,
2013-02-14 01:32:00,39.0,32.0,30.01,WNW,284,0.0,3.0,75,0.00,,,-99.99,,2013-02-14 06:32:00,
2013-02-14 01:42:00,39.0,32.0,30.01,WNW,284,0.0,3.0,75,0.00,,,-99.99,,2013-02-14 06:42:00,
2013-02-14 01:51:00,39.0,32.0,30.00,SW,236,1.0,2.0,75,0.00,,,-99.99,,2013-02-14 06:51:00,
2013-02-14 02:01:00,39.0,32.0,30.00,SW,223,0.0,6.0,75,0.00,,,-99.99,,2013-02-14 07:01:00,
2013-02-14 02:11:00,39.0,32.0,30.00,WNW,284,0.0,0.0,75,0.00,,,-99.99,,2013-02-14 07:11:00,
2013-02-14 02:21:00,39.0,32.0,30.00,WNW,284,0.0,0.0,75,0.00,,,-99.99,,2013-02-14 07:21:00,
2013-02-14 02:32:00,39.0,32.0,30.01,North,8,2.0,3.0,75,0.00,,,-99.99,,2013-02-14 07:32:00,
2013-02-14 02:42:00,39.0,32.0,30.01,North,8,2.0,3.0,75,0.00,,,-99.99,,2013-02-14 07:42:00,
2013-02-14 02:51:00,39.0,32.0,30.01,NE,45,0.0,0.0,75,0.00,,,-99.99,,2013-02-14 07:51:00,
2013-02-14 03:01:00,39.0,31.0,30.01,NE,45,0.0,3.0,74,0.00,,,-99.99,,2013-02-14 08:01:00,
2013-02-14 03:11:00,39.0,31.0,30.01,NE,45,0.0,3.0,74,0.00,,,-99.99,,2013-02-14 08:11:00,
2013-02-14 03:21:00,39.0,31.0,30.01,NE,45,1.0,3.0,74,0.00,,,-99.99,,2013-02-14 08:21:00,
2013-02-14 03:32:00,39.0,32.0,30.01,North,349,2.0,5.0,75,0.00,,,-99.99,,2013-02-14 08:32:00,
2013-02-14 03:43:00,39.0,32.0,30.01,North,349,2.0,5.0,75,0.00,,,-99.99,,2013-02-14 08:43:00,
2013-02-14 03:52:00,39.0,31.0,30.01,NNE,16,1.0,6.0,74,0.00,,,-99.99,,2013-02-14 08:52:00,
2013-02-14 04:02:00,39.0,31.0,30.01,SSW,209,0.0,4.0,73,0.00,,,-99.99,,2013-02-14 09:02:00,
2013-02-14 04:11:00,39.0,30.0,30.01,NE,52,0.0,3.0,71,0.00,,,-99.99,,2013-02-14 09:11:00,
2013-02-14 04:21:00,39.0,30.0,30.01,NE,52,0.0,3.0,71,0.00,,,-99.99,,2013-02-14 09:21:00,
2013-02-14 04:32:00,39.0,30.0,30.02,West,264,0.0,5.0,71,0.00,,,-99.99,,2013-02-14 09:32:00,
2013-02-14 04:42:00,39.0,30.0,30.02,West,264,0.0,5.0,71,0.00,,,-99.99,,2013-02-14 09:42:00,
2013-02-14 04:51:00,38.0,29.0,30.02,West,263,2.0,5.0,71,0.00,,,-99.99,,2013-02-14 09:51:00,
2013-02-14 05:02:00,38.0,29.0,30.02,West,261,0.0,0.0,71,0.00,,,-99.99,,2013-02-14 10:02:00,
2013-02-14 05:11:00,38.0,29.0,30.02,West,261,0.0,1.0,71,0.00,,,-99.99,,2013-02-14 10:11:00,
2013-02-14 05:21:00,38.0,29.0,30.02,West,261,0.0,1.0,71,0.00,,,-99.99,,2013-02-14 10:21:00,
2013-02-14 05:32:00,38.0,29.0,30.02,West,261,0.0,0.0,71,0.00,,,-99.99,,2013-02-14 10:32:00,
2013-02-14 05:42:00,38.0,29.0,30.02,West,261,0.0,0.0,71,0.00,,,-99.99,,2013-02-14 10:42:00,
2013-02-14 05:52:00,37.0,28.0,30.02,West,261,0.0,1.0,71,0.00,,,-99.99,,2013-02-14 10:52:00,
2013-02-14 06:02:00,37.0,29.0,30.00,West,261,0.0,1.0,72,0.00,,,-99.99,,2013-02-14 11:02:00,
2013-02-14 06:11:00,37.0,29.0,30.00,NNW,336,0.0,0.0,72,0.00,,,-99.99,,2013-02-14 11:11:00,
2013-02-14 06:21:00,37.0,29.0,30.00,NNW,336,0.0,0.0,72,0.00,,,-99.99,,2013-02-14 11:21:00,
2013-02-14 06:32:00,37.0,29.0,30.00,NNW,336,0.0,0.0,72,0.00,,,-99.99,,2013-02-14 11:32:00,
2013-02-14 06:42:00,37.0,29.0,30.00,NNW,336,0.0,0.0,72,0.00,,,-99.99,,2013-02-14 11:42:00,
2013-02-14 06:52:00,36.0,28.0,30.00,NNW,336,0.0,0.0,71,0.00,,,-99.99,,2013-02-14 11:52:00,
2013-02-14 07:02:00,36.0,28.0,30.00,NNW,336,0.0,1.0,71,0.00,,,-99.99,,2013-02-14 12:02:00,
2013-02-14 07:12:00,36.0,28.0,30.00,NNW,336,0.0,1.0,71,0.00,,,-99.99,,2013-02-14 12:12:00,
2013-02-14 07:22:00,36.0,27.0,30.01,NNW,336,0.0,0.0,70,0.00,,,-99.99,,2013-02-14 12:22:00,
2013-02-14 07:32:00,36.0,27.0,30.02,NNW,336,0.0,0.0,70,0.00,,,-99.99,,2013-02-14 12:32:00,
2013-02-14 07:42:00,36.0,27.0,30.02,NNW,336,0.0,0.0,70,0.00,,,-99.99,,2013-02-14 12:42:00,
2013-02-14 07:53:00,36.0,27.0,30.02,NNW,336,0.0,0.0,70,0.00,,,-99.99,,2013-02-14 12:53:00,
2013-02-14 08:02:00,36.0,27.0,30.03,NNW,336,0.0,0.0,69,0.00,,,-99.99,,2013-02-14 13:02:00,
2013-02-14 08:11:00,36.0,27.0,30.04,NNW,336,0.0,0.0,70,0.00,,,-99.99,,2013-02-14 13:11:00,
2013-02-14 08:21:00,36.0,27.0,30.04,NNW,336,0.0,0.0,70,0.00,,,-99.99,,2013-02-14 13:21:00,
2013-02-14 08:32:00,37.0,28.0,30.03,NNW,336,0.0,0.0,69,0.00,,,-99.99,,2013-02-14 13:32:00,
2013-02-14 08:42:00,38.0,29.0,30.05,NNW,336,1.0,2.0,69,0.00,,,-99.99,,2013-02-14 13:42:00,
2013-02-14 08:51:00,38.0,29.0,30.05,NNW,336,1.0,2.0,69,0.00,,,-99.99,,2013-02-14 13:51:00,
2013-02-14 09:01:00,38.0,30.0,30.05,NNW,343,0.0,3.0,72,0.00,,,-99.99,,2013-02-14 14:01:00,
2013-02-14 09:11:00,39.0,30.0,30.08,NNW,343,1.0,2.0,71,0.00,,,-99.99,,2013-02-14 14:11:00,
2013-02-14 09:21:00,39.0,30.0,30.08,NNW,343,1.0,2.0,71,0.00,,,-99.99,,2013-02-14 14:21:00,
2013-02-14 09:32:00,41.0,32.0,30.08,West,281,0.0,3.0,70,0.00,,,-99.99,,2013-02-14 14:32:00,
2013-02-14 09:42:00,41.0,32.0,30.08,West,281,0.0,3.0,70,0.00,,,-99.99,,2013-02-14 14:42:00,
2013-02-14 09:52:00,40.0,31.0,30.09,WSW,251,1.0,5.0,69,0.00,,,-99.99,,2013-02-14 14:52:00,
2013-02-14 10:02:00,41.0,31.0,30.09,WSW,251,0.0,5.0,68,0.00,,,-99.99,,2013-02-14 15:02:00,
2013-02-14 10:11:00,41.0,31.0,30.08,WSW,258,0.0,6.0,67,0.00,,,-99.99,,2013-02-14 15:11:00,
2013-02-14 10:21:00,41.0,31.0,30.08,WSW,258,0.0,6.0,67,0.00,,,-99.99,,2013-02-14 15:21:00,
2013-02-14 10:32:00,43.0,32.0,30.08,South,184,1.0,6.0,66,0.00,,,0.00,,2013-02-14 15:32:00,
2013-02-14 10:42:00,43.0,32.0,30.08,South,184,1.0,6.0,66,0.00,,,0.00,,2013-02-14 15:42:00,
2013-02-14 10:52:00,43.0,33.0,30.07,SSW,205,1.0,7.0,67,0.00,,,0.00,,2013-02-14 15:52:00,
2013-02-14 11:02:00,45.0,34.0,30.06,SE,124,2.0,10.0,64,0.00,,,0.00,,2013-02-14 16:02:00,
2013-02-14 11:11:00,44.0,32.0,30.06,South,188,2.0,7.0,63,0.00,,,0.00,,2013-02-14 16:11:00,
2013-02-14 11:21:00,44.0,32.0,30.06,South,188,2.0,7.0,63,0.00,,,0.00,,2013-02-14 16:21:00,
2013-02-14 11:32:00,44.0,32.0,30.06,SE,138,2.0,6.0,62,0.00,,,0.00,,2013-02-14 16:32:00,
2013-02-14 11:42:00,44.0,32.0,30.06,SE,138,2.0,6.0,62,0.00,,,0.00,,2013-02-14 16:42:00,
2013-02-14 11:51:00,46.0,34.0,30.05,SE,137,5.0,8.0,62,0.00,,,0.00,,2013-02-14 16:51:00,
2013-02-14 12:01:00,47.0,34.0,30.05,SE,136,0.0,7.0,60,0.00,,,0.00,,2013-02-14 17:01:00,
2013-02-14 12:11:00,48.0,34.0,30.06,ESE,116,3.0,7.0,59,0.00,,,0.00,,2013-02-14 17:11:00,
2013-02-14 12:21:00,48.0,34.0,30.06,ESE,116,3.0,7.0,59,0.00,,,0.00,,2013-02-14 17:21:00,
2013-02-14 12:32:00,49.0,35.0,30.06,SE,137,2.0,10.0,58,0.00,,,0.00,,2013-02-14 17:32:00,
2013-02-14 12:42:00,49.0,35.0,30.06,SE,137,2.0,10.0,58,0.00,,,0.00,,2013-02-14 17:42:00,
2013-02-14 12:52:00,49.0,34.0,30.06,ESE,116,3.0,8.0,57,0.00,,,0.00,,2013-02-14 17:52:00,
2013-02-14 13:01:00,49.0,35.0,30.05,SE,127,4.0,11.0,58,0.00,,,0.00,,2013-02-14 18:01:00,
2013-02-14 13:11:00,49.0,35.0,30.05,SE,127,4.0,11.0,58,0.00,,,0.00,,2013-02-14 18:11:00,
2013-02-14 13:23:00,49.0,35.0,30.05,SSE,158,2.0,10.0,58,0.00,,,0.00,,2013-02-14 18:23:00,
2013-02-14 13:32:00,51.0,35.0,30.04,SE,145,1.0,8.0,55,0.00,,,0.00,,2013-02-14 18:32:00,
2013-02-14 13:42:00,51.0,35.0,30.04,SE,145,1.0,8.0,55,0.00,,,0.00,,2013-02-14 18:42:00,
2013-02-14 13:51:00,52.0,35.0,30.03,SSW,193,4.0,8.0,52,0.00,,,0.00,,2013-02-14 18:51:00,
2013-02-14 14:02:00,53.0,35.0,30.01,East,79,2.0,10.0,51,0.00,,,0.00,,2013-02-14 19:02:00,
2013-02-14 14:11:00,54.0,35.0,30.00,SE,141,2.0,7.0,49,0.00,,,0.00,,2013-02-14 19:11:00,
2013-02-14 14:21:00,54.0,35.0,30.00,SE,141,2.0,7.0,49,0.00,,,0.00,,2013-02-14 19:21:00,
2013-02-14 14:32:00,55.0,35.0,30.00,SSW,193,3.0,7.0,47,0.00,,,0.00,,2013-02-14 19:32:00,
2013-02-14 14:42:00,55.0,35.0,30.00,SSW,193,3.0,7.0,47,0.00,,,0.00,,2013-02-14 19:42:00,
2013-02-14 14:52:00,55.0,34.0,30.00,SE,137,2.0,12.0,45,0.00,,,0.00,,2013-02-14 19:52:00,
2013-02-14 15:01:00,55.0,33.0,30.00,SW,222,6.0,12.0,44,0.00,,,0.00,,2013-02-14 20:01:00,
2013-02-14 15:11:00,55.0,32.0,30.00,WSW,244,2.0,10.0,42,0.00,,,0.00,,2013-02-14 20:11:00,
2013-02-14 15:21:00,55.0,32.0,30.00,WSW,244,2.0,10.0,42,0.00,,,0.00,,2013-02-14 20:21:00,
2013-02-14 15:32:00,55.0,32.0,29.99,South,178,7.0,16.0,41,0.00,,,0.00,,2013-02-14 20:32:00,
2013-02-14 15:42:00,55.0,32.0,29.99,South,178,7.0,16.0,41,0.00,,,0.00,,2013-02-14 20:42:00,
2013-02-14 15:52:00,56.0,32.0,29.98,SSW,213,2.0,10.0,40,0.00,,,0.00,,2013-02-14 20:52:00,
2013-02-14 16:02:00,56.0,31.0,29.98,SW,234,6.0,10.0,39,0.00,,,0.00,,2013-02-14 21:02:00,
2013-02-14 16:11:00,56.0,31.0,29.98,SW,234,6.0,10.0,39,0.00,,,0.00,,2013-02-14 21:11:00,
2013-02-14 16:21:00,56.0,32.0,29.98,West,271,5.0,10.0,40,0.00,,,0.00,,2013-02-14 21:21:00,
2013-02-14 16:32:00,56.0,31.0,29.99,SW,230,7.0,10.0,38,0.00,,,0.00,,2013-02-14 21:32:00,
2013-02-14 16:42:00,56.0,31.0,29.99,SW,230,7.0,10.0,38,0.00,,,0.00,,2013-02-14 21:42:00,
2013-02-14 16:51:00,56.0,30.0,29.99,WSW,251,1.0,7.0,37,0.00,,,0.00,,2013-02-14 21:51:00,
2013-02-14 17:02:00,57.0,30.0,29.99,WNW,299,0.0,8.0,36,0.00,,,0.00,,2013-02-14 22:02:00,
2013-02-14 17:11:00,56.0,29.0,29.99,WSW,253,1.0,7.0,36,0.00,,,0.00,,2013-02-14 22:11:00,
2013-02-14 17:21:00,56.0,29.0,29.99,WSW,253,1.0,7.0,36,0.00,,,0.00,,2013-02-14 22:21:00,
2013-02-14 17:32:00,56.0,31.0,29.99,SW,220,1.0,10.0,38,0.00,,,0.00,,2013-02-14 22:32:00,
2013-02-14 17:42:00,56.0,31.0,29.99,SW,220,1.0,10.0,38,0.00,,,0.00,,2013-02-14 22:42:00,
2013-02-14 17:51:00,55.0,31.0,29.99,SSW,202,1.0,8.0,39,0.00,,,0.00,,2013-02-14 22:51:00,
2013-02-14 18:01:00,54.0,30.0,29.99,West,267,2.0,7.0,40,0.00,,,0.00,,2013-02-14 23:01:00,
2013-02-14 18:11:00,54.0,30.0,29.99,West,267,2.0,7.0,40,0.00,,,0.00,,2013-02-14 23:11:00,
2013-02-14 18:21:00,54.0,31.0,29.99,WSW,240,0.0,8.0,41,0.00,,,0.00,,2013-02-14 23:21:00,
2013-02-14 18:32:00,53.0,30.0,29.99,WSW,257,1.0,6.0,41,0.00,,,0.00,,2013-02-14 23:32:00,
2013-02-14 18:42:00,53.0,30.0,29.99,WSW,257,1.0,6.0,41,0.00,,,0.00,,2013-02-14 23:42:00,
2013-02-14 18:52:00,53.0,31.0,30.00,SW,219,0.0,0.0,43,0.00,,,0.00,,2013-02-14 23:52:00,
2013-02-14 19:01:00,52.0,31.0,30.01,West,265,0.0,2.0,44,0.00,,,0.00,,2013-02-15 00:01:00,
2013-02-14 19:11:00,52.0,31.0,30.01,West,265,0.0,2.0,44,0.00,,,0.00,,2013-02-15 00:11:00,
2013-02-14 19:22:00,51.0,31.0,30.01,West,265,0.0,0.0,47,0.00,,,0.00,,2013-02-15 00:22:00,
2013-02-14 19:32:00,50.0,31.0,30.01,West,265,0.0,0.0,48,0.00,,,0.00,,2013-02-15 00:32:00,
2013-02-14 19:42:00,50.0,31.0,30.01,West,265,0.0,0.0,48,0.00,,,0.00,,2013-02-15 00:42:00,
2013-02-14 19:51:00,50.0,31.0,30.02,WSW,254,0.0,2.0,48,0.00,,,0.00,,2013-02-15 00:51:00,
2013-02-14 20:02:00,50.0,32.0,30.02,West,281,0.0,2.0,49,0.00,,,0.00,,2013-02-15 01:02:00,
2013-02-14 20:11:00,50.0,32.0,30.02,West,281,0.0,2.0,49,0.00,,,0.00,,2013-02-15 01:11:00,
2013-02-14 20:21:00,50.0,32.0,30.02,WSW,240,0.0,2.0,50,0.00,,,0.00,,2013-02-15 01:21:00,
2013-02-14 20:32:00,49.0,32.0,30.03,WSW,241,0.0,0.0,52,0.00,,,0.00,,2013-02-15 01:32:00,
2013-02-14 20:42:00,49.0,32.0,30.03,WSW,241,0.0,0.0,52,0.00,,,0.00,,2013-02-15 01:42:00,
2013-02-14 20:51:00,49.0,32.0,30.02,WSW,250,1.0,5.0,52,0.00,,,0.00,,2013-02-15 01:51:00,
2013-02-14 21:01:00,49.0,32.0,30.03,WSW,253,0.0,2.0,52,0.00,,,0.00,,2013-02-15 02:01:00,
2013-02-14 21:11:00,49.0,33.0,30.03,West,271,2.0,7.0,53,0.00,,,0.00,,2013-02-15 02:11:00,
2013-02-14 21:21:00,49.0,33.0,30.03,West,271,2.0,7.0,53,0.00,,,0.00,,2013-02-15 02:21:00,
2013-02-14 21:32:00,49.0,33.0,30.03,West,260,2.0,7.0,53,0.00,,,0.00,,2013-02-15 02:32:00,
2013-02-14 21:42:00,49.0,33.0,30.03,West,260,2.0,7.0,53,0.00,,,0.00,,2013-02-15 02:42:00,
2013-02-14 21:52:00,49.0,33.0,30.03,WSW,244,2.0,6.0,53,0.00,,,0.00,,2013-02-15 02:52:00,
2013-02-14 22:02:00,48.0,32.0,30.03,WSW,240,1.0,5.0,54,0.00,,,0.00,,2013-02-15 03:02:00,
2013-02-14 22:11:00,47.0,32.0,30.03,SSW,206,0.0,5.0,55,0.00,,,0.00,,2013-02-15 03:11:00,
2013-02-14 22:22:00,47.0,32.0,30.03,SSW,206,0.0,5.0,55,0.00,,,0.00,,2013-02-15 03:22:00,
2013-02-14 22:32:00,46.0,32.0,30.03,SSW,206,0.0,3.0,58,0.00,,,0.00,,2013-02-15 03:32:00,
2013-02-14 22:42:00,46.0,32.0,30.03,SSW,206,0.0,3.0,58,0.00,,,0.00,,2013-02-15 03:42:00,
2013-02-14 22:51:00,46.0,32.0,30.03,SSW,206,1.0,2.0,59,0.00,,,0.00,,2013-02-15 03:51:00,
2013-02-14 23:01:00,46.0,32.0,30.04,SSW,208,1.0,3.0,58,0.00,,,0.00,,2013-02-15 04:01:00,
2013-02-14 23:11:00,46.0,33.0,30.04,SW,223,2.0,5.0,60,0.00,,,0.00,,2013-02-15 04:11:00,
2013-02-14 23:21:00,46.0,33.0,30.04,SW,223,2.0,5.0,60,0.00,,,0.00,,2013-02-15 04:21:00,
2013-02-14 23:32:00,46.0,32.0,30.04,SW,232,1.0,5.0,59,0.00,,,0.00,,2013-02-15 04:32:00,
2013-02-14 23:42:00,46.0,32.0,30.04,SW,232,1.0,5.0,59,0.00,,,0.00,,2013-02-15 04:42:00,
2013-02-14 23:52:00,45.0,32.0,30.03,SW,232,1.0,2.0,60,0.00,,,0.00,,2013-02-15 04:52:00,